Location: Lourdes
(43.1000°N, 0.0500°W)
Time: 04:50:43
(UTC+00:00)

Lacrosse 4 Rocket - Pass Details

Date: 30 November 2020
Orbit: 537 x 620 km, 68.0° (Epoch: 24 January)

Event Time Altitude Azimuth Distance (km) Brightness Sun altitude
Rises 19:15:34 0° 209° (SSW) 2,678 5.2 -30.2°
Reaches altitude 10° 19:17:44 10° 210° (SSW) 1,795 4.3 -30.6°
Enters shadow 19:18:02 12° 210° (SSW) 1,676 4.1 -30.7°
